Welcome to the New NWS' Forecast!
Most changes are behind the scenes, but click here for differences you might notice.

Regional Weather Roundup (RWR)

Issued by Gray - Portland, ME (GYX)

                            
000
ASUS41 KGYX 180605
RWRGYX
WEATHER ROUNDUP FOR MAINE AND NEW HAMPSHIRE
NATIONAL WEATHER SERVICE GRAY ME
200 AM EDT THU OCT 18 2018

MEZ002-005-006-010-012-015-018-020-021-024-026-027-029-180700-
MAINE
  
CITY           SKY/WX    TMP DP  RH WIND       PRES   REMARKS
PORTLAND       FAIR      39  26  59 W12       29.89R                  
6HR MIN TEMP:  39; 6HR MAX TEMP:  44;                                

BAR HARBOR     FAIR      37  29  72 W5        29.80R                  
WISCASSET      FAIR      40  25  55 VRB6      29.87R                  
6HR MIN TEMP:  38; 6HR MAX TEMP:  45;                                

FRYEBURG       FAIR      37  20  50 W8G16     29.89S                  
6HR MIN TEMP:  37; 6HR MAX TEMP:  42;                                

LEWISTONAUBURN FAIR      39  24  55 NW15G21   29.87R                  
AUGUSTA        MOCLDY    38  26  62 NW10G18   29.85R                  
6HR MIN TEMP:  37; 6HR MAX TEMP:  44; 6HR PCP: TRACE;                

WATERVILLE     FLURRIES  34  31  88 W9        29.81R                  
BANGOR         MOCLDY    37  27  67 W6        29.79R                  
6HR MIN TEMP:  36; 6HR MAX TEMP:  43;                                

GREENVILLE       N/A     32  25  75 NW16G24   29.72R                  
6HR MIN TEMP:  32; 6HR MAX TEMP:  36;                                

MILLINOCKET    CLOUDY    37  27  67 W10       29.75R                  
6HR MIN TEMP:  36; 6HR MAX TEMP:  41; 6HR PCP: TRACE;                

HOULTON        CLOUDY    34  27  75 W6        29.67R                  
6HR MIN TEMP:  33; 6HR MAX TEMP:  39;                                

PRESQUE ISLE   FAIR      32  26  78 W8        29.67R                  
6HR MIN TEMP:  32; 6HR MAX TEMP:  37;                                

FRENCHVILLE    FAIR      32  23  69 W16       29.62S                  
6HR MIN TEMP:  32; 6HR MAX TEMP:  37; 6HR PCP: TRACE;                

CARIBOU        FAIR      33  24  69 NW8G17    29.64R                  
6HR MIN TEMP:  33; 6HR MAX TEMP:  38;                                

$$

NHZ002-005-008-009-011-012-014-180700-
NEW HAMPSHIRE
  
CITY           SKY/WX    TMP DP  RH WIND       PRES   REMARKS
PORTSMOUTH     PTCLDY    38  31  74 W14G20    29.94R                  
ROCHESTER      FAIR      36  32  85 VRB5      29.93R                  
6HR MIN TEMP:  36; 6HR MAX TEMP:  43; 6HR PCP: TRACE;                

NASHUA         FAIR      38  32  79 W7        29.99R                  
MANCHESTER     FAIR      38  33  82 W5        29.97R                  
6HR MIN TEMP:  38; 6HR MAX TEMP:  46; 6HR PCP:  0.01;                

CONCORD        FAIR      36  30  79 NW9G18    29.97R                  
6HR MIN TEMP:  34; 6HR MAX TEMP:  43; 6HR PCP:  0.03;                

LACONIA        FAIR      36  27  69 W12G23    29.94R                  
PLYMOUTH       FAIR      35  29  80 NW6       29.94R                  
BERLIN         MOCLDY    33  25  72 NW5       29.86R                  
6HR MIN TEMP:  33; 6HR MAX TEMP:  39; 6HR PCP: TRACE;                

WHITEFIELD     CLOUDY    32  29  88 W5        29.91R                  
6HR MIN TEMP:  32; 6HR MAX TEMP:  38; 6HR PCP:  0.01;                

JAFFREY        FAIR      34  27  75 W10       29.98R                  
6HR MIN TEMP:  34; 6HR MAX TEMP:  43; 6HR PCP:  0.01;                

KEENE          FAIR      36  26  67 VRB6      30.01R                  
LEBANON        FAIR      35  25  66 W9        29.98R                  
6HR MIN TEMP:  33; 6HR MAX TEMP:  44; 6HR PCP:  0.04;                

MT WASHINGTON  SNOW      10  10 100 NW62G77     N/A  VSB 1/16WCI -18  
6HR MIN TEMP:  11; 6HR MAX TEMP:  16; 6HR PCP:  0.04;                

$$

VTZ005-007-008-180700-
VERMONT
  
CITY           SKY/WX    TMP DP  RH WIND       PRES   REMARKS
ST JOHNSBURY     N/A     32  29  88 MISG      29.93R                  
MONTPELIER     CLOUDY    33  24  69 W15G24    29.99R                  
BURLINGTON     CLOUDY    37  24  59 NW15G28   30.03R                  
$$

MAZ007-012-024-CTZ003-RIZ002-NYZ038-NYZ072-180700-
SOUTHERN NEW ENGLAND AND NY
  
CITY           SKY/WX    TMP DP  RH WIND       PRES   REMARKS
BOSTON         LGT RAIN  42  33  70 W18G36    30.00R                  
WORCESTER      MOCLDY    37  28  70 NW14G24   29.99R                  
NANTUCKET      FAIR      47  31  53 W20G28    29.99R                  
PROVIDENCE     FAIR      43  29  57 W13G24    30.04R                  
HARTFORD       FAIR      41  27  57 W9G21     30.07R                  
ALBANY         FAIR      39  26  59 NW16G22   30.12R                  
NEW YORK CITY  CLOUDY    48  30  49 NW23G30   30.15R                  
$$

ANZ081-ANZ082-ANZ150-NHZ014-MEZ023>029-180700-
COASTAL MARINE OBSERVATIONS
  
STATION/POSITION TIME  TEMP    WIND        PRES    WAVE
                       AIR SEA DIR/SP/G            HT/PER
                 (UTC) (F)     (DEG/KT/KT) (MB)    (FT/S)
MOUNT DESERT ROC 0600   44     260/ 22/ 25 1008.7R
MATINICUS ROCK   0500   45     290/ 25/ 31 1009.0R
ISLE OF SHOALS   0500   42     290/ 23/ 26 1012.6R
JEFFREYS LEDGE   0536      56                N/A     6/ 5
$$

.............KEY..............
   WCI - WIND CHILL
   TC  - TEMPERATURE IN CELSIUS
   VSB - VISIBILITY IN MILES
   HX  - HEAT INDEX
   FAIR- INDICATES FEW OR NO CLOUDS BELOW 12,000 FT, WITH NO 
         SIGNIFICANT WEATHER AND/OR OBSTRUCTIONS TO VISIBILITY.